Regional Weather Roundup
Issued by NWS Jackson, KY

Home | Current Version | Previous Version | Text Only | Print | Product List | Glossary On
Versions: 1 2 3 4 5 6 7 8 9 10 11 12 13 14 15 16 17 18 19 20 21 22 23 24 25 26 27 28 29 30 31 32 33 34 35 36 37 38 39 40 41 42 43 44 45 46 47 48 49 50
000
ASUS43 KJKL 270210
RWRJKL

EAST KENTUCKY HOURLY WEATHER ROUNDUP
NATIONAL WEATHER SERVICE JACKSON KY
1000 PM EDT TUE MAY 26 2015

NOTE: "FAIR" INDICATES FEW OR NO CLOUDS BELOW 12,000 FEET WITH
NO SIGNIFICANT WEATHER AND/OR OBSTRUCTIONS TO VISIBILITY.

* THESE REPORTS ARE NOT UNDER NWS QUALITY CONTROL AND MAY NOT
  REPORT WEATHER SUCH AS PRECIPITATION AND FOG.

KYZ079-080-083-085-087-088-110-112-115-119-120-270300
...EASTERN KENTUCKY...

CITY           SKY/WX    TMP DP  RH WIND       PRES   REMARKS
JACKSON        HVY RAIN  66  64  93 VRB5      30.16R VSB 1
LONDON         LGT RAIN  68  63  84 SE3       30.13F
SOMERSET*      CLOUDY    66  66 100 S5        30.12S
MONTICELLO*    CLOUDY    69  68  97 S8        30.13S
MIDDLESBORO*   DRIZZLE   72  67  84 S8G17     30.16R
HARLAN APT*    CLOUDY    66  66 100 SE6       30.16S
HAZARD APT*    HVY RAIN  72  64  78 SW8G17    30.16R
BLACK MTN*       N/A     63  63 100 SW3         N/A
PIKEVILLE APT* MOCLDY    72  64  78 S5        30.12R
BIG SANDY*     CLOUDY    75  65  70 SW6       30.11R
MOREHEAD APT*  RAIN      66  64  94 S5        30.12F
$$

KYZ035-036-041-042-044-050-067-078-099-270300
...CENTRAL KENTUCKY...

CITY           SKY/WX    TMP DP  RH WIND       PRES   REMARKS
MT STERLING*   LGT RAIN  64  64 100 SW9       30.12S
FLEMING/MASON* LGT RAIN  66  64  94 SW8       30.09S
DANVILLE*      CLOUDY    64  64 100 S7        30.10S
RICHMOND*      CLOUDY    66  64  94 S6        30.10R
LEXINGTON      CLOUDY    67  64  90 S12       30.08R
FRANKFORT      CLOUDY    66  63  90 S9        30.05R
$$

KYZ091>093-OHZ055-061-077-WVZ005-015-034-035-042-270300
...SOUTHERN OHIO/WEST VIRGINIA...

CITY           SKY/WX    TMP DP  RH WIND       PRES   REMARKS
COVINGTON      CLOUDY    68  65  90 S7        30.03S
COLUMBUS       CLOUDY    68  67  96 S6        30.02R
DAYTON         CLOUDY    71  68  90 S14       30.00R
WILMINGTON     CLOUDY    69  66  90 S15G22    30.02S
HUNTINGTON     MOCLDY    72  64  76 W12G37    30.08R
CHARLESTON     MOCLDY    79  64  60 S9        30.05S THUNDER
PINEVILLE*     CLOUDY    67  67 100 MISG      30.20R FOG
BECKLEY        MOCLDY    70  62  76 S10       30.19R
BLUEFIELD      CLOUDY    73  60  63 S9        30.24R
$$

VAZ002-007-008-TNZ017-027-036-066-071-270300
...SOUTHWEST VIRGINIA/EAST TENNESSEE...

CITY           SKY/WX    TMP DP  RH WIND       PRES   REMARKS
WISE*          CLOUDY    73  55  53 S9        30.21S
JONESVILLE*    CLOUDY    70  68  94 CALM      30.19R
ABINGDON*      CLOUDY    75  62  63 SW7       30.20R
BRISTOL        CLOUDY    76  63  64 S3        30.17R
KNOXVILLE      CLOUDY    73  61  65 SW7       30.15R
OAK RIDGE      CLOUDY    72  69  90 CALM      30.18R
CROSSVILLE     CLOUDY    69  65  86 S7        30.17R
NASHVILLE      MOCLDY    71  67  87 S3        30.09R
$$

...KEY TO REMARKS...
VSB - VISIBILITY IN MILES
WCI - WIND CHILL INDEX
HX  - HEAT INDEX

$$


USA.gov is the U.S. government's official web portal to all federal, state and local government web resources and services.